Weather History for Sanford, FL

Change the Weather History Date:

Thursday, February 20, 2014

  Actual Average Record
Temperature  
Mean Temperature 70 °F -  
Max Temperature 84 °F 73 °F 85 °F (1961)
Min Temperature 57 °F 51 °F 30 °F (1958)
Cooling Degree Days 6    
Growing Degree Days 20 (Base 50)    
Moisture  
Dew Point 61 °F    
Average Humidity 86    
Maximum Humidity 100    
Minimum Humidity 41    
Precipitation  
Precipitation 0.00 in - - ()
Sea Level Pressure  
Sea Level Pressure 30.13 in    
Wind  
Wind Speed 5 mph (SSE)    
Max Wind Speed 16 mph    
Max Gust Speed 22 mph    
Visibility 6 miles    
Events Fog    
Averages and records for this station are not official NWS values.
T = Trace of Precipitation, MM = Missing Value Source: NWS Daily Summary

Daily Weather History Graph

Daily Weather History Graph

Search for Another Location

Airport:

Trip Planner

Search our weather history database for the weather conditions in past years. The results will help you decide how hot, cold, wet, or windy it might be!

Date:

Astronomy

Feb. 20, 2014 Rise Set
Actual Time 6:58 AM EST 6:18 PM EST
Civil Twilight 6:35 AM EST 6:42 PM EST
Nautical Twilight 6:07 AM EST 7:10 PM EST
Astronomical Twilight 5:39 AM EST 7:37 PM EST
Moon 11:40 PM EST (2/20) 10:09 AM EST (2/20)
Length of Visible Light 12h 07m
Length of Day
11h 19m
Waning Gibbous, 71% of the Moon is Illuminated
Feb 20
Waning Gibbous
Feb 22
Last Quarter
Mar 1
New
Mar 8
First Quarter
Mar 16
Full

Hourly Weather History & Observations

Time (EST) Temp. Heat Index Dew Point Humidity Pressure Visibility Wind Dir Wind Speed Gust Speed Precip Events Conditions
12:53 AM 66.9 °F - 64.0 °F 90% 30.12 in 10.0 mi South 5.8 mph - N/A   Clear
1:53 AM 64.9 °F - 64.0 °F 97% 30.11 in 10.0 mi South 3.5 mph - N/A   Clear
2:53 AM 62.1 °F - 61.0 °F 96% 30.12 in 10.0 mi Calm Calm - N/A   Clear
3:50 AM 60.8 °F - 59.0 °F 94% 30.13 in 1.2 mi Calm Calm - N/A   Partly Cloudy
3:53 AM 60.1 °F - 59.0 °F 96% 30.13 in 0.8 mi Calm Calm - N/A   Mist
4:00 AM 62.1 °F - 61.0 °F 96% 30.13 in 1.5 mi SSE 3.5 mph - N/A   Partly Cloudy
4:02 AM 61.0 °F - 61.0 °F 100% 30.13 in 3.0 mi South 3.5 mph - N/A   Partly Cloudy
4:33 AM 60.1 °F - 60.1 °F 100% 30.13 in 1.8 mi SSE 3.5 mph - N/A   Clear
4:35 AM 59.0 °F - 59.0 °F 100% 30.13 in 1.0 mi SSE 3.5 mph - N/A   Mist
4:43 AM 60.1 °F - 60.1 °F 100% 30.13 in 0.5 mi Calm Calm - N/A Fog Fog
4:51 AM 57.2 °F - 57.2 °F 100% 30.13 in 0.2 mi SE 3.5 mph - N/A Fog Fog
4:53 AM 59.0 °F - 57.9 °F 96% 30.13 in 0.2 mi SSE 3.5 mph - N/A Fog Fog
5:01 AM 59.0 °F - 59.0 °F 100% 30.13 in 1.0 mi SE 3.5 mph - N/A   Mist
5:09 AM 59.0 °F - 59.0 °F 100% 30.14 in 0.5 mi SSE 3.5 mph - N/A Fog Fog
5:16 AM 59.0 °F - 59.0 °F 100% 30.14 in 0.2 mi SE 3.5 mph - N/A Fog Fog
5:53 AM 57.9 °F - 57.9 °F 100% 30.14 in 0.2 mi Calm Calm - N/A Fog Fog
6:53 AM 57.0 °F - 57.0 °F 100% 30.16 in 0.2 mi SE 3.5 mph - N/A Fog Fog
7:26 AM 57.9 °F - 57.9 °F 100% 30.16 in 0.2 mi ESE 4.6 mph - N/A Fog Fog
7:53 AM 59.0 °F - 59.0 °F 100% 30.17 in 0.2 mi Calm Calm - N/A Fog Fog
8:09 AM 61.0 °F - 61.0 °F 100% 30.18 in 0.5 mi Calm Calm - N/A Fog Fog
8:14 AM 62.1 °F - 62.1 °F 100% 30.18 in 3.0 mi Calm Calm - N/A   Mostly Cloudy
8:22 AM 63.0 °F - 63.0 °F 100% 30.18 in 10.0 mi SE 3.5 mph - N/A   Clear
8:53 AM 66.0 °F - 64.9 °F 96% 30.18 in 10.0 mi SSE 8.1 mph - N/A   Clear
9:53 AM 73.9 °F - 66.0 °F 76% 30.18 in 10.0 mi SSE 11.5 mph - N/A   Clear
10:53 AM 78.1 °F - 64.0 °F 62% 30.17 in 10.0 mi SE 16.1 mph - N/A   Partly Cloudy
11:53 AM 81.0 °F 82.2 °F 63.0 °F 54% 30.16 in 10.0 mi South 13.8 mph - N/A   Clear
12:53 PM 82.9 °F 83.3 °F 61.0 °F 47% 30.13 in 10.0 mi SE 15.0 mph - N/A   Clear
1:53 PM 84.0 °F 84.0 °F 60.1 °F 44% 30.10 in 10.0 mi SSE 15.0 mph 21.9 mph N/A   Clear
2:53 PM 84.9 °F 84.4 °F 59.0 °F 41% 30.09 in 10.0 mi South 11.5 mph - N/A   Scattered Clouds
3:53 PM 84.9 °F 84.4 °F 59.0 °F 41% 30.08 in 10.0 mi SSE 9.2 mph - N/A   Scattered Clouds
4:53 PM 80.1 °F 82.1 °F 66.0 °F 62% 30.08 in 10.0 mi ESE 15.0 mph - N/A   Partly Cloudy
5:53 PM 77.0 °F - 64.9 °F 66% 30.08 in 10.0 mi ESE 12.7 mph - N/A   Clear
6:53 PM 73.0 °F - 64.9 °F 76% 30.09 in 10.0 mi ESE 11.5 mph - N/A   Clear
7:53 PM 71.1 °F - 64.9 °F 81% 30.10 in 10.0 mi SE 10.4 mph - N/A   Clear
8:53 PM 70.0 °F - 64.9 °F 84% 30.10 in 10.0 mi SE 4.6 mph - N/A   Clear
9:53 PM 66.9 °F - 64.0 °F 90% 30.11 in 10.0 mi SE 4.6 mph - N/A   Clear
10:53 PM 66.0 °F - 64.9 °F 96% 30.10 in 10.0 mi SE 6.9 mph - N/A   Clear
11:53 PM 66.0 °F - 64.9 °F 96% 30.09 in 10.0 mi SSE 4.6 mph - N/A   Clear